sat.trackr.live / text

‹ back to catalog

LEMUR-2-IRINA

NORAD 68480 · 2026-067BS

PAYLOAD ACTIVE UNKNOWN

§ Identity

Operator
Country
LUXE
Launch date
2026-03-30
Launch site
AFWTR
Launch vehicle
Mass (kg)
RCS (m²)

External: N2YO · Heavens-Above · Gunter

§ Orbital elements

Epoch: 2026-09-19T16:29:04.902720Z

Period
96.42 min
Inclination
97.7726°
Eccentricity
0.0003130
Mean motion
14.93409815 rev/d
Perigee alt
585.1 km
Apogee alt
589.5 km
Semi-major
6,965.4 km
B*
1.9905e-4
RAAN
219.9063°
Arg perigee
343.2449°
Mean anomaly
16.8666°
Rev number
2,583

§ Raw data

LEMUR-2-IRINA1 68480U 26067BS  26262.68686230  .00002034  00000+0  19905-3 0  99992 68480  97.7726 219.9063 0003130 343.2449  16.8666 14.93409815 25837

JSON: /api/v1/satellites/68480 · /tle

For live sub-satellite position, see the globe view (requires WebGL).

§ Visibility from observer

Set your observer location to see the next 7 days of passes ≥ 10°. The values pass through the URL so the page stays shareable.

No JS? Fill the form by hand. The geolocation button needs JavaScript.